This demonstration page uses our WeatherBlox Daily Observations layout. Learn more.

Left ArrowRight Arrow

38.20091, -84.87328

Hourly Observations for February 24, 2018

Temp ( °F °C ) Dew Point ( °F °C ) Humidity (%) Winds ( mph kmh ) Pressure ( in mb ) Visibility ( mi km ) Precip ( " mm )
12:07 am 00:07 Cloudy 58 14.4 54 12.2 87 87 N 5 7 30.18 1022 10 16 0.00 0.03
12:53 am 00:53 Cloudy 57 13.9 54 12.2 90 90 E 3 6 30.15 1021 10 16 0.00 0.03
1:06 am 01:06 Cloudy 57 13.9 54 12.2 90 90 Calm 30.15 1021 10 16 0.00 0.00
1:53 am 01:53 Cloudy 56 13.3 53 11.7 90 90 Calm 30.14 1021 10 16 0.00 0.00
2:53 am 02:53 Cloudy 56 13.3 53 11.7 90 90 Calm 30.11 1020 9 14 0.00 0.00
3:14 am 03:14 Mostly Cloudy 56 13.3 53 11.7 90 90 Calm 30.12 1020 9 14 0.00 0.00
3:28 am 03:28 Cloudy 57 13.9 53 11.7 87 87 N 3 6 30.12 1020 9 14 0.00 0.00
3:53 am 03:53 Cloudy 56 13.3 53 11.7 90 90 N 6 9 30.09 1019 9 14 0.00 0.03
4:46 am 04:46 Cloudy 56 13.3 52 11.1 87 87 NE 6 9 30.09 1019 8 13 0.01 0.25
4:53 am 04:53 Cloudy 56 13.3 52 11.1 87 87 NNE 5 7 30.08 1019 7 11 0.01 0.25
5:53 am 05:53 Cloudy with Rain 55 12.8 52 11.1 90 90 NNW 5 7 30.09 1019 4 6 0.02 0.51
6:49 am 06:49 Cloudy with Light Rain 54 12 52 11 94 94 NNE 5 7 30.06 1018 5 8 0.01 0.25
6:53 am 06:53 Cloudy with Light Rain 54 12.2 51 10.6 90 90 NNE 5 7 30.06 1018 6 10 0.01 0.25
7:13 am 07:13 Cloudy 54 12.2 51 10.6 90 90 NNE 7 11 30.06 1018 8 13 0.00 0.03
7:53 am 07:53 Cloudy with Light Rain 54 12.2 51 10.6 90 90 NE 5 7 30.05 1018 3 5 0.00 0.03
8:00 am 08:00 Cloudy with Light Rain 54 12.2 51 10.6 90 90 ENE 5 7 30.06 1018 2 3 0.01 0.25
8:33 am 08:33 Cloudy with Mist and Fog 54 12.2 52 11.1 93 93 ENE 7 11 30.06 1018 4 6 0.01 0.25
8:53 am 08:53 Cloudy 55 12.8 52 11.1 90 90 NE 7 11 30.03 1017 9 14 0.01 0.25
9:35 am 09:35 Cloudy with Light Rain 54 12.2 51 10.6 90 90 VRB 3 6 30.03 1017 3 4 0.03 0.76
9:53 am 09:53 Cloudy with Rain 54 12.2 51 10.6 90 90 NE 6 9 30.03 1017 2 3 0.12 3.05
10:04 am 10:04 Cloudy with Rain 54 12.2 51 10.6 90 90 NNE 6 9 30.03 1017 2 3 0.05 1.27
10:24 am 10:24 Cloudy with Light Rain 54 12.2 51 10.6 90 90 N 8 13 30.03 1017 3 5 0.11 2.79
10:53 am 10:53 Cloudy with Light Rain 53 11.7 50 10 89 89 NNW 13 20 30.06 1018 3 4 0.14 3.56
11:13 am 11:13 Cloudy with Light Rain 52 11.1 48 8.9 86 86 NNW 15 24 30.09 1019 3 5 0.01 0.25
11:53 am 11:53 Cloudy 52 11.1 47 8.3 83 83 NNE 12 19 30.06 1018 10 16 0.01 0.25
12:53 pm 12:53 Cloudy 52 11.1 47 8.3 83 83 NE 7 11 30.03 1017 10 16 0.01 0.25
1:53 pm 13:53 Cloudy 52 11.1 48 8.9 86 86 E 9 15 29.97 1015 9 14 0.00 0.03
2:42 pm 14:42 Cloudy with Light Rain 52 11.1 49 9.4 89 89 E 6 9 29.94 1014 2 3 0.02 0.51
2:50 pm 14:50 Cloudy with Rain 52 11 48 9 88 88 ESE 7 11 29.94 1014 1 2 0.04 1.02
2:53 pm 14:53 Cloudy with Light Rain 52 11.1 49 9.4 89 89 ESE 7 11 29.94 1014 2 2 0.04 1.02
2:58 pm 14:58 Cloudy with Light Rain 52 11.1 49 9.4 89 89 ESE 7 11 29.94 1014 3 5 0.00 0.03
3:36 pm 15:36 Cloudy 53 11.7 50 10 89 89 E 8 13 29.94 1014 10 16 0.00 0.03
3:53 pm 15:53 Mostly Cloudy 54 12.2 50 10 87 87 E 8 13 29.91 1013 10 16 0.00 0.03
4:11 pm 16:11 Mostly Cloudy 54 12.2 50 10 87 87 E 7 11 29.91 1013 10 16 0.00 0.00
4:53 pm 16:53 Cloudy with Heavy Rain 54 12.2 51 10.6 90 90 ESE 7 11 29.91 1013 3 4 0.07 1.78
5:03 pm 17:03 Cloudy with Light Rain 54 12.2 51 10.6 90 90 ESE 7 11 29.91 1013 6 10 0.01 0.25
5:53 pm 17:53 Cloudy 55 12.8 52 11.1 90 90 ESE 3 6 29.88 1012 10 16 0.06 1.52
6:53 pm 18:53 Cloudy 56 13.3 53 11.7 90 90 ESE 7 11 29.83 1010 10 16 0.03 0.76
7:53 pm 19:53 Cloudy with Rain 58 14.4 55 12.8 90 90 SE 7 11 29.80 1009 6 10 0.02 0.51
8:53 pm 20:53 Cloudy with Light Rain 61 16.1 57 13.9 87 87 S 7 11 29.78 1009 8 13 0.11 2.79
9:53 pm 21:53 Cloudy with Light Rain 62 16.7 58 14.4 86 86 S 10 17 29.75 1008 10 16 0.02 0.51
10:53 pm 22:53 Cloudy with Light Rain 64 17.8 59 15 84 84 S 14 22 29.74 1007 8 13 0.08 2.03
11:51 pm 23:51 Cloudy with Nearby Thunderstorms 63 17 57 14 83 83 W 21 33 29.83 1010 2 2 0.28 7.11
11:53 pm 23:53 Cloudy with Nearby Thunderstorms 61 16.1 56 13.3 84 84 WSW 24 39 29.82 1010 1 2 0.37 9.40

Powered by AerisWeather